BAW31 EGLL-VHHH

Flight info

Callsign BAW31
Flight time N/A
Altitude 33000
Route DET L6 DVR L9 KONAN UL607 MATUG DCT GUBAX DCT BOREP DCT ENITA DCT ETVIS DCT DITIS DCT ERGOM DCT DINRO DCT UDROS UM859 KARDE UN644 ROLIN DCT TAGAR DCT BT DCT BARAD M747 SUBUT T916 LEYLA N161 ABTEK/N0490F350 N161 GASBI/K0904F350 N161 SARIN/K0898S1070 A368 OMKEN/K0902S1130 A368 FKG W192 ESDEX W191 DNC W565 BIGUX B330 KWE W181 DUDIT A599 POU R473 SIERA
Aircraft A35K/H-SBDE1E2E3GHIJ1J3J4J5J6M1M2P2RWXYZ/LB1D1

Departure

Time 2026-05-04 20:40
Airport London Heathrow Airport (EGLL)

Arrival

Time N/A
Airport Hong Kong International Airport (VHHH)
Time Latitude Longitude Altitude Speed Heading
2026-05-04 20:15 51.47397 -0.47498 92 ft 0 kts 269°
2026-05-04 20:29 51.47397 -0.47492 92 ft 3 kts 269°
2026-05-04 20:29 51.47398 -0.47449 95 ft 4 kts 269°
2026-05-04 20:29 51.47398 -0.47406 95 ft 3 kts 269°
2026-05-04 20:30 51.47399 -0.47373 93 ft 4 kts 244°
2026-05-04 20:30 51.47414 -0.47355 93 ft 3 kts 180°
2026-05-04 20:30 51.47440 -0.47355 92 ft 4 kts 179°
2026-05-04 20:30 51.47450 -0.47355 92 ft 0 kts 179°
2026-05-04 20:33 51.47443 -0.47355 93 ft 3 kts 179°
2026-05-04 20:33 51.47409 -0.47355 95 ft 7 kts 179°
2026-05-04 20:33 51.47357 -0.47354 92 ft 8 kts 179°
2026-05-04 20:33 51.47299 -0.47354 94 ft 9 kts 180°
2026-05-04 20:34 51.47233 -0.47353 95 ft 10 kts 180°
2026-05-04 20:34 51.47162 -0.47352 95 ft 11 kts 180°
2026-05-04 20:34 51.47085 -0.47351 93 ft 12 kts 180°
2026-05-04 20:34 51.47001 -0.47351 95 ft 12 kts 180°
2026-05-04 20:35 51.46914 -0.47350 94 ft 13 kts 180°
2026-05-04 20:35 51.46822 -0.47349 92 ft 14 kts 180°
2026-05-04 20:35 51.46724 -0.47349 93 ft 14 kts 180°
2026-05-04 20:35 51.46665 -0.47380 92 ft 8 kts 236°
2026-05-04 20:36 51.46655 -0.47471 92 ft 9 kts 269°
2026-05-04 20:36 51.46655 -0.47573 92 ft 10 kts 269°
2026-05-04 20:36 51.46654 -0.47685 92 ft 10 kts 270°
2026-05-04 20:36 51.46654 -0.47805 92 ft 11 kts 270°
2026-05-04 20:37 51.46654 -0.47934 93 ft 12 kts 270°
2026-05-04 20:37 51.46653 -0.48068 92 ft 12 kts 270°
2026-05-04 20:37 51.46653 -0.48209 95 ft 13 kts 270°
2026-05-04 20:37 51.46653 -0.48358 92 ft 14 kts 270°
2026-05-04 20:38 51.46652 -0.48513 92 ft 14 kts 269°
2026-05-04 20:38 51.46651 -0.48662 93 ft 7 kts 269°
2026-05-04 20:38 51.46641 -0.48734 94 ft 6 kts 231°
2026-05-04 20:38 51.46599 -0.48767 92 ft 7 kts 201°
2026-05-04 20:39 51.46548 -0.48789 94 ft 8 kts 182°
2026-05-04 20:39 51.46494 -0.48746 92 ft 9 kts 130°
2026-05-04 20:39 51.46478 -0.48646 92 ft 10 kts 90°
2026-05-04 20:39 51.46479 -0.48459 92 ft 38 kts 89°
2026-05-04 20:40 51.46483 -0.47642 93 ft 107 kts 90°
2026-05-04 20:40 51.46486 -0.46131 92 ft 166 kts 90°
2026-05-04 20:40 51.46499 -0.44121 539 ft 181 kts 88°
2026-05-04 20:40 51.46307 -0.42155 1304 ft 182 kts 111°
2026-05-04 20:41 51.45686 -0.40301 1606 ft 196 kts 119°
2026-05-04 20:41 51.45025 -0.38276 1831 ft 213 kts 114°
2026-05-04 20:41 51.44423 -0.36011 2066 ft 230 kts 109°
2026-05-04 20:41 51.43863 -0.33491 2292 ft 248 kts 108°
2026-05-04 20:42 51.43294 -0.30833 2781 ft 255 kts 108°
2026-05-04 20:42 51.42759 -0.28113 3388 ft 258 kts 103°
2026-05-04 20:42 51.42346 -0.25292 3986 ft 261 kts 101°
2026-05-04 20:42 51.41960 -0.22435 4594 ft 264 kts 101°
2026-05-04 20:43 51.41568 -0.19549 5195 ft 267 kts 102°
2026-05-04 20:43 51.41172 -0.16641 5779 ft 270 kts 102°
2026-05-04 20:43 51.40769 -0.13688 6386 ft 272 kts 102°
2026-05-04 20:43 51.40361 -0.10713 6970 ft 275 kts 102°
2026-05-04 20:44 51.39944 -0.07709 7539 ft 278 kts 102°
2026-05-04 20:44 51.39522 -0.04660 8119 ft 281 kts 102°
2026-05-04 20:44 51.39097 -0.01597 8695 ft 283 kts 102°
2026-05-04 20:44 51.38666 0.01502 9250 ft 286 kts 102°
2026-05-04 20:45 51.38230 0.04633 9782 ft 290 kts 102°
2026-05-04 20:45 51.37786 0.07811 10278 ft 296 kts 102°
2026-05-04 20:45 51.37327 0.11109 10537 ft 310 kts 102°
2026-05-04 20:45 51.36850 0.14514 10781 ft 324 kts 103°
2026-05-04 20:46 51.36343 0.18110 11026 ft 338 kts 103°
2026-05-04 20:46 51.35820 0.21853 11267 ft 351 kts 103°
2026-05-04 20:46 51.35270 0.25737 11504 ft 364 kts 103°
2026-05-04 20:46 51.34699 0.29750 11708 ft 376 kts 103°
2026-05-04 20:47 51.34112 0.33875 11963 ft 386 kts 103°
2026-05-04 20:47 51.33507 0.38117 12348 ft 392 kts 103°
2026-05-04 20:47 51.32897 0.42379 12795 ft 395 kts 103°
2026-05-04 20:47 51.32285 0.46654 13252 ft 397 kts 103°
2026-05-04 20:48 51.31671 0.50965 13704 ft 400 kts 103°
2026-05-04 20:48 51.31043 0.55316 14151 ft 403 kts 103°
2026-05-04 20:48 51.30411 0.59678 14607 ft 404 kts 103°
2026-05-04 20:48 51.29740 0.64068 15051 ft 407 kts 105°
2026-05-04 20:49 51.28965 0.68432 15485 ft 409 kts 107°
2026-05-04 20:49 51.28137 0.72782 15902 ft 411 kts 107°
2026-05-04 20:49 51.27289 0.77161 16351 ft 414 kts 107°
2026-05-04 20:49 51.26442 0.81569 16807 ft 416 kts 107°
2026-05-04 20:50 51.25601 0.86003 17234 ft 418 kts 107°
2026-05-04 20:50 51.24764 0.90470 17652 ft 421 kts 107°
2026-05-04 20:50 51.23929 0.94957 18073 ft 423 kts 107°
2026-05-04 20:50 51.23093 0.99462 18481 ft 425 kts 107°
2026-05-04 20:51 51.22250 1.04009 18863 ft 428 kts 107°
2026-05-04 20:51 51.21400 1.08573 19236 ft 431 kts 107°
2026-05-04 20:51 51.20543 1.13165 19602 ft 434 kts 107°
2026-05-04 20:51 51.19678 1.17787 19979 ft 436 kts 107°
2026-05-04 20:52 51.18807 1.22429 20351 ft 439 kts 107°
2026-05-04 20:52 51.17927 1.27103 20713 ft 442 kts 107°
2026-05-04 20:52 51.17045 1.31803 21068 ft 444 kts 107°
2026-05-04 20:52 51.16390 1.36635 21429 ft 447 kts 98°
2026-05-04 20:53 51.15997 1.41564 21799 ft 450 kts 96°
2026-05-04 20:53 51.15698 1.46539 22159 ft 453 kts 95°
2026-05-04 20:53 51.15450 1.51551 22518 ft 455 kts 95°
2026-05-04 20:53 51.15222 1.56610 22874 ft 458 kts 95°
2026-05-04 20:54 51.14996 1.61678 23222 ft 461 kts 95°
2026-05-04 20:54 51.14762 1.66783 23577 ft 463 kts 95°
2026-05-04 20:54 51.14518 1.71912 23915 ft 466 kts 95°
2026-05-04 20:54 51.14264 1.77078 24245 ft 468 kts 95°
2026-05-04 20:55 51.14003 1.82258 24580 ft 471 kts 95°
2026-05-04 20:55 51.13736 1.87458 24919 ft 473 kts 95°
2026-05-04 20:55 51.13468 1.92623 25246 ft 475 kts 95°
2026-05-04 20:55 51.13193 1.97871 25572 ft 477 kts 95°
2026-05-04 20:56 51.12919 2.03130 25888 ft 478 kts 95°
2026-05-04 20:56 51.12639 2.08498 26175 ft 481 kts 96°
2026-05-04 20:56 51.12359 2.13745 26467 ft 483 kts 96°
2026-05-04 20:56 51.12069 2.19083 26767 ft 485 kts 96°
2026-05-04 20:57 51.11771 2.24516 27056 ft 487 kts 96°
2026-05-04 20:57 51.11480 2.29813 27345 ft 489 kts 96°
2026-05-04 20:57 51.11180 2.35215 27628 ft 490 kts 96°
2026-05-04 20:57 51.10877 2.40628 27897 ft 492 kts 96°
2026-05-04 20:58 51.10570 2.46063 28170 ft 494 kts 96°
2026-05-04 20:58 51.10263 2.51507 28458 ft 495 kts 97°
2026-05-04 20:58 51.09951 2.56979 28706 ft 497 kts 97°
2026-05-04 20:58 51.09602 2.62465 28966 ft 498 kts 100°
2026-05-04 20:59 51.08920 2.67845 29311 ft 494 kts 106°
2026-05-04 20:59 51.08057 2.73123 29661 ft 493 kts 107°
2026-05-04 20:59 51.07140 2.78361 29993 ft 491 kts 108°
2026-05-04 20:59 51.06194 2.83575 30317 ft 490 kts 108°
2026-05-04 21:00 51.05234 2.88780 30608 ft 490 kts 108°
2026-05-04 21:00 51.04273 2.93974 30904 ft 489 kts 108°
2026-05-04 21:00 51.03313 2.99157 31165 ft 490 kts 108°
2026-05-04 21:00 51.02354 3.04349 31439 ft 489 kts 108°
2026-05-04 21:01 51.01410 3.09462 31706 ft 488 kts 108°
2026-05-04 21:01 51.00442 3.14703 31964 ft 488 kts 108°
2026-05-04 21:01 50.99488 3.19864 32196 ft 488 kts 109°
2026-05-04 21:01 50.98542 3.24963 32409 ft 488 kts 109°
2026-05-04 21:02 50.97584 3.30126 32644 ft 487 kts 109°
2026-05-04 21:02 50.96623 3.35281 32869 ft 486 kts 109°
2026-05-04 21:02 50.95658 3.40435 32999 ft 488 kts 109°
2026-05-04 21:02 50.94683 3.45618 33002 ft 492 kts 109°
2026-05-04 21:03 50.92718 3.56033 32997 ft 493 kts 109°
2026-05-04 21:03 50.90751 3.66432 32979 ft 492 kts 109°
2026-05-04 21:04 50.88758 3.76812 32985 ft 492 kts 109°
2026-05-04 21:04 50.86742 3.87178 32981 ft 492 kts 109°
2026-05-04 21:05 50.84735 3.97463 32974 ft 493 kts 110°
2026-05-04 21:05 50.82705 4.07821 32973 ft 493 kts 109°
2026-05-04 21:06 50.80664 4.18198 32969 ft 494 kts 109°
2026-05-04 21:06 50.78612 4.28585 32967 ft 494 kts 109°
2026-05-04 21:07 50.76550 4.38953 32967 ft 494 kts 110°
2026-05-04 21:07 50.74830 4.47564 32970 ft 494 kts 110°
2026-05-04 21:08 50.72751 4.57908 32960 ft 495 kts 110°
2026-05-04 21:08 50.70697 4.68271 32959 ft 495 kts 109°
2026-05-04 21:09 50.68695 4.78661 32959 ft 495 kts 109°
2026-05-04 21:09 50.66688 4.89038 32961 ft 495 kts 109°
2026-05-04 21:10 50.64636 4.99397 32964 ft 495 kts 110°
2026-05-04 21:10 50.62499 5.09705 32960 ft 495 kts 110°
2026-05-04 21:11 50.60348 5.20002 32965 ft 495 kts 110°
2026-05-04 21:11 50.58201 5.30306 32962 ft 495 kts 111°
2026-05-04 21:12 50.56070 5.40529 32964 ft 495 kts 111°
2026-05-04 21:12 50.53914 5.50807 32963 ft 495 kts 111°
2026-05-04 21:13 50.51784 5.61088 32961 ft 496 kts 108°
2026-05-04 21:13 50.50264 5.71669 32959 ft 497 kts 104°
2026-05-04 21:14 50.48892 5.82315 32964 ft 497 kts 104°
2026-05-04 21:14 50.47522 5.92956 32964 ft 497 kts 104°
2026-05-04 21:15 50.46129 6.03589 32968 ft 497 kts 104°
2026-05-04 21:15 50.44721 6.14217 32984 ft 497 kts 104°
2026-05-04 21:16 50.43304 6.24846 32980 ft 498 kts 104°
2026-05-04 21:16 50.41895 6.35483 32982 ft 498 kts 102°
2026-05-04 21:17 50.40959 6.46203 32985 ft 499 kts 99°
2026-05-04 21:17 50.40126 6.57026 32986 ft 500 kts 99°
2026-05-04 21:18 50.39302 6.67850 32975 ft 500 kts 99°
2026-05-04 21:18 50.38461 6.78678 32988 ft 500 kts 99°
2026-05-04 21:19 50.37605 6.89479 32995 ft 500 kts 99°
2026-05-04 21:19 50.36736 7.00289 32992 ft 500 kts 99°
2026-05-04 21:20 50.35856 7.11080 32993 ft 500 kts 99°
2026-05-04 21:20 50.34966 7.21899 32988 ft 500 kts 99°
2026-05-04 21:21 50.34078 7.32612 32992 ft 499 kts 99°
2026-05-04 21:21 50.33173 7.43395 32990 ft 499 kts 99°
2026-05-04 21:22 50.32257 7.54172 32997 ft 499 kts 100°
2026-05-04 21:22 50.31331 7.64924 32998 ft 498 kts 100°
2026-05-04 21:23 50.30396 7.75671 33000 ft 498 kts 100°
2026-05-04 21:23 50.29452 7.86406 32999 ft 498 kts 100°
2026-05-04 21:24 50.28471 7.97125 33000 ft 497 kts 101°
2026-05-04 21:24 50.27304 8.07780 33000 ft 497 kts 102°
2026-05-04 21:25 50.26095 8.18424 32999 ft 497 kts 102°
2026-05-04 21:25 50.24912 8.28994 32997 ft 497 kts 102°
2026-05-04 21:26 50.23730 8.39643 33000 ft 497 kts 102°
2026-05-04 21:26 50.22541 8.50290 32999 ft 498 kts 102°
2026-05-04 21:27 50.21339 8.60933 32997 ft 497 kts 102°
2026-05-04 21:27 50.20128 8.71578 32995 ft 498 kts 102°
2026-05-04 21:28 50.18906 8.82228 32983 ft 498 kts 102°
2026-05-04 21:28 50.17674 8.92865 32993 ft 498 kts 102°
2026-05-04 21:29 50.16432 9.03492 32982 ft 498 kts 102°
2026-05-04 21:29 50.15181 9.14120 32995 ft 498 kts 102°
2026-05-04 21:30 50.13922 9.24722 32990 ft 498 kts 102°
2026-05-04 21:30 50.12655 9.35316 32996 ft 497 kts 102°
2026-05-04 21:31 50.10736 9.51194 32985 ft 496 kts 102°
2026-05-04 21:32 50.09444 9.61764 32994 ft 496 kts 102°
2026-05-04 21:32 50.08144 9.72324 32996 ft 496 kts 102°
2026-05-04 21:33 50.06847 9.82792 32987 ft 495 kts 103°
2026-05-04 21:33 50.05530 9.93316 32989 ft 495 kts 103°
2026-05-04 21:34 50.04205 10.03831 32988 ft 495 kts 103°
2026-05-04 21:34 50.02870 10.14340 32975 ft 495 kts 103°
2026-05-04 21:35 50.01530 10.24843 32974 ft 495 kts 103°
2026-05-04 21:35 50.00177 10.35343 32977 ft 495 kts 103°
2026-05-04 21:36 49.98811 10.45837 32976 ft 495 kts 103°
2026-05-04 21:36 49.97438 10.56330 32976 ft 495 kts 103°
2026-05-04 21:37 49.96052 10.66822 32975 ft 495 kts 103°
2026-05-04 21:37 49.94638 10.77297 32970 ft 495 kts 103°
2026-05-04 21:38 49.93209 10.87764 32967 ft 495 kts 103°
2026-05-04 21:38 49.91772 10.98230 32966 ft 496 kts 103°
2026-05-04 21:39 49.90338 11.08623 32977 ft 496 kts 103°
2026-05-04 21:39 49.88885 11.19085 32978 ft 496 kts 103°
2026-05-04 21:40 49.87419 11.29556 32982 ft 497 kts 103°
2026-05-04 21:40 49.85945 11.40030 32976 ft 497 kts 103°
2026-05-04 21:41 49.84458 11.50511 32979 ft 497 kts 103°
2026-05-04 21:41 49.82961 11.60981 32997 ft 498 kts 103°
2026-05-04 21:42 49.81455 11.71440 32995 ft 498 kts 103°
2026-05-04 21:42 49.79939 11.81904 32992 ft 498 kts 104°
2026-05-04 21:43 49.78416 11.92353 32986 ft 498 kts 104°
2026-05-04 21:43 49.76891 12.02737 32994 ft 498 kts 104°
2026-05-04 21:44 49.75348 12.13188 32983 ft 498 kts 104°
2026-05-04 21:44 49.73792 12.23631 32989 ft 498 kts 104°
2026-05-04 21:45 49.72231 12.34051 32984 ft 498 kts 104°
2026-05-04 21:45 49.70660 12.44473 32980 ft 498 kts 104°
2026-05-04 21:46 49.69116 12.54917 32971 ft 498 kts 103°
2026-05-04 21:46 49.67666 12.65395 32967 ft 499 kts 103°
2026-05-04 21:47 49.66215 12.75854 32956 ft 498 kts 103°
2026-05-04 21:47 49.64023 12.85952 32954 ft 496 kts 115°
2026-05-04 21:48 49.61093 12.95586 32943 ft 496 kts 117°
2026-05-04 21:48 49.58560 13.03518 32945 ft 496 kts 117°
2026-05-04 21:49 49.55499 13.13066 32944 ft 497 kts 117°
2026-05-04 21:49 49.52442 13.22627 32944 ft 497 kts 117°
2026-05-04 21:50 49.49389 13.32175 32944 ft 498 kts 117°
2026-05-04 21:50 49.46330 13.41710 32944 ft 497 kts 117°
2026-05-04 21:51 49.43258 13.51241 32943 ft 497 kts 117°
2026-05-04 21:51 49.40201 13.60696 32943 ft 497 kts 117°
2026-05-04 21:52 49.37113 13.70206 32943 ft 498 kts 117°
2026-05-04 21:52 49.34015 13.79711 32942 ft 497 kts 117°
2026-05-04 21:53 49.30915 13.89191 32942 ft 497 kts 117°
2026-05-04 21:53 49.27802 13.98665 32943 ft 498 kts 118°
2026-05-04 21:54 49.24686 14.08119 32943 ft 498 kts 117°
2026-05-04 21:54 49.21557 14.17576 32943 ft 497 kts 118°
2026-05-04 21:55 49.18425 14.27012 32943 ft 497 kts 118°
2026-05-04 21:55 49.15303 14.36380 32945 ft 497 kts 118°
2026-05-04 21:56 49.12138 14.45845 32944 ft 497 kts 118°
2026-05-04 21:56 49.09010 14.55169 32943 ft 497 kts 118°
2026-05-04 21:57 49.05851 14.64539 32934 ft 497 kts 118°
2026-05-04 21:57 49.02684 14.73900 32937 ft 497 kts 118°
2026-05-04 21:58 48.99512 14.83247 32938 ft 496 kts 118°
2026-05-04 21:58 48.96328 14.92592 32942 ft 497 kts 118°
2026-05-04 21:59 48.93139 15.01909 32944 ft 496 kts 118°
2026-05-04 21:59 48.89945 15.11220 32943 ft 496 kts 118°
2026-05-04 22:00 48.87004 15.20710 32944 ft 497 kts 113°
2026-05-04 22:00 48.84401 15.30436 32943 ft 497 kts 112°
2026-05-04 22:01 48.81774 15.40124 32943 ft 496 kts 113°
2026-05-04 22:01 48.79067 15.49779 32952 ft 497 kts 113°
2026-05-04 22:02 48.76327 15.59397 32952 ft 497 kts 114°
2026-05-04 22:02 48.73575 15.69013 32952 ft 497 kts 114°
2026-05-04 22:03 48.70835 15.78559 32953 ft 497 kts 114°
2026-05-04 22:03 48.68073 15.88151 32952 ft 497 kts 114°
2026-05-04 22:04 48.65306 15.97726 32953 ft 497 kts 114°
2026-05-04 22:04 48.62527 16.07302 32953 ft 497 kts 114°
2026-05-04 22:05 48.59740 16.16870 32952 ft 497 kts 114°
2026-05-04 22:05 48.56945 16.26422 32953 ft 497 kts 114°
2026-05-04 22:06 48.54142 16.35960 32943 ft 497 kts 114°
2026-05-04 22:06 48.51348 16.45428 32944 ft 497 kts 114°
2026-05-04 22:07 48.48528 16.54960 32944 ft 497 kts 114°
2026-05-04 22:07 48.45700 16.64478 32953 ft 498 kts 114°
2026-05-04 22:08 48.42862 16.73992 32953 ft 498 kts 114°
2026-05-04 22:08 48.40017 16.83490 32953 ft 497 kts 114°
2026-05-04 22:09 48.37172 16.92961 32951 ft 497 kts 114°
2026-05-04 22:09 48.34316 17.02429 32961 ft 497 kts 114°
2026-05-04 22:10 48.31448 17.11890 32964 ft 497 kts 114°
2026-05-04 22:10 48.28569 17.21353 32961 ft 497 kts 114°
2026-05-04 22:11 48.25685 17.30804 32966 ft 498 kts 114°
2026-05-04 22:11 48.22813 17.40177 32969 ft 498 kts 114°
2026-05-04 22:12 48.19911 17.49613 32973 ft 498 kts 114°
2026-05-04 22:12 48.17002 17.59031 32969 ft 498 kts 114°
2026-05-04 22:13 48.14089 17.68428 32977 ft 498 kts 114°
2026-05-04 22:13 48.11167 17.77821 32974 ft 498 kts 114°
2026-05-04 22:14 48.08236 17.87203 32984 ft 498 kts 114°
2026-05-04 22:14 48.05298 17.96578 32999 ft 498 kts 114°
2026-05-04 22:15 48.02355 18.05937 32999 ft 498 kts 114°
2026-05-04 22:15 47.99398 18.15298 32998 ft 498 kts 114°
2026-05-04 22:16 47.96454 18.24578 33004 ft 497 kts 114°
2026-05-04 22:16 47.93492 18.33896 33008 ft 497 kts 114°
2026-05-04 22:17 47.90515 18.43216 33008 ft 498 kts 115°
2026-05-04 22:17 47.87532 18.52524 33008 ft 498 kts 115°
2026-05-04 22:18 47.84543 18.61820 33017 ft 498 kts 115°
2026-05-04 22:18 47.81544 18.71108 33017 ft 497 kts 115°
2026-05-04 22:19 47.78507 18.80363 33023 ft 498 kts 116°
2026-05-04 22:19 47.75382 18.89545 33026 ft 498 kts 116°
2026-05-04 22:20 47.72248 18.98710 33035 ft 497 kts 116°
2026-05-04 22:20 47.69118 19.07879 33037 ft 498 kts 116°
2026-05-04 22:21 47.65987 19.17040 33046 ft 497 kts 116°
2026-05-04 22:21 47.62852 19.26191 33046 ft 497 kts 116°
2026-05-04 22:22 47.59728 19.35271 33047 ft 497 kts 116°
2026-05-04 22:22 47.56578 19.44391 33046 ft 497 kts 116°
2026-05-04 22:23 47.53419 19.53504 33046 ft 497 kts 116°
2026-05-04 22:23 47.50259 19.62592 33052 ft 497 kts 116°
2026-05-04 22:24 47.47091 19.71671 33054 ft 497 kts 116°
2026-05-04 22:24 47.43913 19.80747 33047 ft 497 kts 116°
2026-05-04 22:25 47.40730 19.89807 33054 ft 497 kts 116°
2026-05-04 22:25 47.37539 19.98857 33054 ft 497 kts 117°
2026-05-04 22:26 47.34340 20.07899 33054 ft 497 kts 116°
2026-05-04 22:26 47.31139 20.16916 33054 ft 497 kts 117°
2026-05-04 22:27 47.27923 20.25943 33052 ft 497 kts 117°
2026-05-04 22:27 47.24726 20.34886 33047 ft 497 kts 117°
2026-05-04 22:28 47.21502 20.43875 33047 ft 497 kts 117°
2026-05-04 22:28 47.18271 20.52858 33050 ft 497 kts 117°
2026-05-04 22:29 47.15029 20.61836 33054 ft 497 kts 117°
2026-05-04 22:29 47.11779 20.70806 33054 ft 497 kts 117°
2026-05-04 22:30 47.08525 20.79753 33054 ft 497 kts 117°
2026-05-04 22:30 47.05261 20.88707 33064 ft 497 kts 117°
2026-05-04 22:31 47.01993 20.97632 33064 ft 497 kts 117°
2026-05-04 22:31 46.98717 21.06554 33063 ft 497 kts 117°
2026-05-04 22:32 46.95990 21.13956 33064 ft 497 kts 117°
2026-05-04 22:32 46.92700 21.22860 33064 ft 497 kts 117°
2026-05-04 22:33 46.89410 21.31742 33071 ft 497 kts 117°
2026-05-04 22:33 46.86113 21.40614 33073 ft 497 kts 117°
2026-05-04 22:34 46.82803 21.49480 33073 ft 497 kts 117°
2026-05-04 22:34 46.79486 21.58337 33073 ft 497 kts 117°
2026-05-04 22:35 46.76162 21.67181 33072 ft 497 kts 117°
2026-05-04 22:35 46.72835 21.76010 33073 ft 497 kts 117°
2026-05-04 22:36 46.69499 21.84833 33073 ft 497 kts 117°
2026-05-04 22:36 46.66155 21.93647 33073 ft 497 kts 117°
2026-05-04 22:37 46.62804 22.02454 33073 ft 497 kts 117°
2026-05-04 22:37 46.59469 22.11187 33073 ft 497 kts 117°
2026-05-04 22:38 46.56106 22.19966 33073 ft 497 kts 118°
2026-05-04 22:38 46.52734 22.28738 33073 ft 497 kts 118°
2026-05-04 22:39 46.49356 22.37500 33073 ft 497 kts 118°
2026-05-04 22:39 46.45975 22.46250 33081 ft 497 kts 118°
2026-05-04 22:40 46.42586 22.54984 33082 ft 497 kts 118°
2026-05-04 22:40 46.39188 22.63714 33082 ft 497 kts 118°
2026-05-04 22:41 46.35787 22.72421 33091 ft 497 kts 118°
2026-05-04 22:41 46.32377 22.81124 33092 ft 497 kts 118°
2026-05-04 22:42 46.28962 22.89810 33092 ft 496 kts 118°
2026-05-04 22:42 46.25566 22.98421 33090 ft 496 kts 118°
2026-05-04 22:43 46.22140 23.07086 33092 ft 497 kts 118°
2026-05-04 22:43 46.18711 23.15737 33091 ft 496 kts 118°
2026-05-04 22:44 46.15271 23.24380 33096 ft 497 kts 118°
2026-05-04 22:44 46.11822 23.33015 33099 ft 496 kts 119°
2026-05-04 22:45 46.08366 23.41643 33101 ft 497 kts 119°
2026-05-04 22:45 46.03172 23.54568 33099 ft 497 kts 119°
2026-05-04 22:46 45.99723 23.63116 33102 ft 497 kts 119°
2026-05-04 22:46 45.96243 23.71709 33099 ft 497 kts 119°
2026-05-04 22:47 45.92762 23.80279 33102 ft 496 kts 119°
2026-05-04 22:47 45.89275 23.88838 33098 ft 496 kts 119°
2026-05-04 22:48 45.85777 23.97399 33101 ft 497 kts 119°
2026-05-04 22:48 45.82279 24.05931 33102 ft 496 kts 119°
2026-05-04 22:49 45.78772 24.14461 33100 ft 497 kts 120°
2026-05-04 22:49 45.75277 24.22933 33100 ft 497 kts 120°
2026-05-04 22:50 45.71736 24.31494 33103 ft 497 kts 120°